Location: Zagreb
(45.8000°N, 16.0000°E)
Time: 01:04:03
(UTC+02:00)

Vanguard 2 - Visible Passes

Search period start: 12 August 2020 00:00
Search period end: 22 August 2020 00:00
Orbit: 553 x 2938 km, 32.9° (Epoch: 11 August)

Date Brightness Start Highest point End Pass type
(mag) Time Alt. Az. Time Alt. Az. Time Alt. Az.
12 Aug 10.0 00:36:35 10° W 00:46:21 34° SW 00:46:21 34° SW visible
12 Aug 10.5 20:30:43 10° SW 20:46:24 41° SSE 20:58:36 10° E visible
12 Aug 9.8 22:41:46 10° WSW 22:56:54 47° S 23:01:32 35° SE visible
13 Aug 10.2 00:54:38 10° W 01:02:55 29° SW 01:02:55 29° SW visible
13 Aug 10.4 20:47:57 10° SW 21:04:06 45° SSE 21:16:29 10° ESE visible
13 Aug 9.8 22:59:33 10° WSW 23:14:34 46° S 23:18:03 39° SSE visible
14 Aug 10.5 01:12:51 10° W 01:19:26 24° WSW 01:19:26 24° WSW visible
14 Aug 10.3 21:05:24 10° WSW 21:21:49 48° S 21:33:08 14° ESE visible
14 Aug 9.8 23:17:27 10° W 23:32:11 44° SSW 23:34:31 41° S visible
15 Aug 10.8 01:31:17 10° W 01:35:53 18° WSW 01:35:53 18° WSW visible
15 Aug 10.3 21:23:00 10° WSW 21:39:33 50° S 21:49:34 19° ESE visible
15 Aug 9.9 23:35:26 10° W 23:49:44 40° SSW 23:50:56 40° S visible
16 Aug 11.1 01:50:07 10° W 01:52:18 13° WSW 01:52:18 13° WSW visible
16 Aug 10.3 21:40:43 10° WSW 21:57:16 50° S 22:05:58 24° SE visible
16 Aug 10.1 23:53:30 10° W 00:07:10 36° SSW 00:07:20 36° SSW visible
17 Aug 10.2 21:58:31 10° WSW 22:14:57 49° S 22:22:20 29° SE visible
18 Aug 10.4 00:11:44 10° W 00:23:42 31° SW 00:23:42 31° SW visible
18 Aug 10.6 20:04:52 10° WSW 20:21:35 51° S 20:36:06 10° ESE visible
18 Aug 10.2 22:16:26 10° W 22:32:35 46° SSW 22:38:42 32° SSE visible
19 Aug 10.7 00:30:11 10° W 00:40:03 25° SW 00:40:03 25° SW visible
19 Aug 10.6 20:22:30 10° WSW 20:39:19 52° S 20:53:41 10° ESE visible
19 Aug 10.2 22:34:25 10° W 22:50:08 42° SSW 22:55:03 34° SSE visible
20 Aug 10.9 00:49:01 10° W 00:56:24 20° SW 00:56:24 20° SW visible
20 Aug 10.6 20:40:13 10° WSW 20:57:02 52° S 21:10:02 15° ESE visible
20 Aug 10.3 22:52:30 10° W 23:07:34 38° SSW 23:11:24 33° S visible
21 Aug 11.2 01:08:35 10° WSW 01:12:46 14° WSW 01:12:46 14° WSW visible
21 Aug 10.6 20:58:02 10° WSW 21:14:44 50° S 21:26:24 18° SE visible
21 Aug 10.5 23:10:44 10° W 23:24:55 33° SSW 23:27:46 31° SSW visible
